sat.trackr.live / text

‹ back to catalog

STARLINK-35684

NORAD 66458 · 2025-262C

PAYLOAD ACTIVE UNKNOWN

§ Identity

Operator
Country
US
Launch date
2025-11-15
Launch site
AFETR
Launch vehicle
Mass (kg)
RCS (m²)

Purposes: comms

External: N2YO · Heavens-Above · Gunter

§ Orbital elements

Epoch: 2026-09-20T08:16:31.621152Z

Period
94.27 min
Inclination
42.9990°
Eccentricity
0.0001246
Mean motion
15.27571946 rev/d
Perigee alt
482.2 km
Apogee alt
483.9 km
Semi-major
6,861.2 km
B*
5.7396e-5
RAAN
277.1013°
Arg perigee
268.7778°
Mean anomaly
91.2930°
Rev number
4,867

§ Raw data

STARLINK-356841 66458U 25262C   26263.34481043  .00001317  00000+0  57396-4 0  99972 66458  42.9990 277.1013 0001246 268.7778  91.2930 15.27571946 48679

JSON: /api/v1/satellites/66458 · /tle

For live sub-satellite position, see the globe view (requires WebGL).

§ Visibility from observer

Set your observer location to see the next 7 days of passes ≥ 10°. The values pass through the URL so the page stays shareable.

No JS? Fill the form by hand. The geolocation button needs JavaScript.